TimeEDT,TemperatureF,Dew PointF,Humidity,Sea Level PressureIn,VisibilityMPH,Wind Direction,Wind SpeedMPH,Gust SpeedMPH,PrecipitationIn,Events,Conditions,WindDirDegrees,DateUTC
12:53 AM,70.0,66.0,87,30.00,10.0,Calm,Calm,-,N/A,,Partly Cloudy,0,2013-05-12 04:53:00
1:53 AM,70.0,66.0,87,29.99,10.0,Calm,Calm,-,0.00,,Mostly Cloudy,0,2013-05-12 05:53:00
2:51 AM,69.8,66.2,88,29.97,10.0,Calm,Calm,-,N/A,,Overcast,0,2013-05-12 06:51:00
2:53 AM,70.0,66.0,87,29.99,10.0,SSW,3.5,-,N/A,,Overcast,200,2013-05-12 06:53:00
3:35 AM,69.8,66.2,88,29.97,10.0,Calm,Calm,-,N/A,,Mostly Cloudy,0,2013-05-12 07:35:00
3:53 AM,69.1,64.9,87,29.98,9.0,Calm,Calm,-,N/A,,Mostly Cloudy,0,2013-05-12 07:53:00
4:15 AM,68.0,64.4,88,29.96,8.0,Calm,Calm,-,N/A,,Mostly Cloudy,0,2013-05-12 08:15:00
4:53 AM,68.0,64.0,87,29.97,7.0,Calm,Calm,-,N/A,,Mostly Cloudy,0,2013-05-12 08:53:00
5:01 AM,66.2,64.4,94,29.95,6.0,Calm,Calm,-,N/A,,Partly Cloudy,0,2013-05-12 09:01:00
5:22 AM,66.2,62.6,88,29.96,4.0,Calm,Calm,-,N/A,,Mostly Cloudy,0,2013-05-12 09:22:00
5:37 AM,66.2,64.4,94,29.97,1.8,Calm,Calm,-,N/A,,Overcast,0,2013-05-12 09:37:00
5:53 AM,68.0,64.0,87,29.99,0.5,Calm,Calm,-,N/A,Fog,Fog,0,2013-05-12 09:53:00
6:09 AM,68.0,64.4,88,29.98,1.8,Calm,Calm,-,N/A,,Overcast,0,2013-05-12 10:09:00
6:13 AM,69.8,64.4,83,29.98,3.0,Calm,Calm,-,N/A,,Overcast,0,2013-05-12 10:13:00
6:44 AM,69.8,64.4,83,29.99,7.0,Calm,Calm,-,N/A,,Overcast,0,2013-05-12 10:44:00
6:53 AM,69.1,64.9,87,30.02,7.0,Calm,Calm,-,N/A,,Overcast,0,2013-05-12 10:53:00
7:14 AM,69.8,64.4,83,30.00,6.0,Calm,Calm,-,N/A,,Overcast,0,2013-05-12 11:14:00
7:53 AM,70.0,64.9,84,30.03,7.0,Calm,Calm,-,N/A,,Overcast,0,2013-05-12 11:53:00
8:15 AM,69.8,66.2,88,30.02,8.0,Calm,Calm,-,N/A,,Overcast,0,2013-05-12 12:15:00
8:38 AM,71.6,66.2,83,30.02,10.0,Calm,Calm,-,N/A,,Overcast,0,2013-05-12 12:38:00
8:53 AM,72.0,66.0,81,30.05,10.0,Calm,Calm,-,N/A,,Overcast,0,2013-05-12 12:53:00
9:12 AM,71.6,64.4,78,30.03,10.0,Variable,3.5,-,N/A,,Overcast,0,2013-05-12 13:12:00
9:28 AM,71.6,64.4,78,30.03,10.0,Calm,Calm,-,N/A,,Overcast,0,2013-05-12 13:28:00
9:53 AM,75.0,64.9,71,30.04,10.0,Variable,3.5,-,N/A,,Mostly Cloudy,0,2013-05-12 13:53:00
10:00 AM,75.2,64.4,69,30.03,10.0,Calm,Calm,-,N/A,,Partly Cloudy,0,2013-05-12 14:00:00
10:31 AM,78.8,62.6,57,30.03,10.0,Calm,Calm,-,N/A,,Mostly Cloudy,0,2013-05-12 14:31:00
10:46 AM,78.8,62.6,57,30.03,10.0,Variable,3.5,-,N/A,,Scattered Clouds,0,2013-05-12 14:46:00
10:53 AM,79.0,63.0,58,30.05,10.0,Variable,4.6,-,N/A,,Mostly Cloudy,0,2013-05-12 14:53:00
11:53 AM,81.0,63.0,54,30.05,10.0,Variable,3.5,-,N/A,,Scattered Clouds,0,2013-05-12 15:53:00
12:53 PM,80.1,61.0,52,30.05,10.0,Calm,Calm,-,N/A,,Overcast,0,2013-05-12 16:53:00
1:53 PM,82.0,60.1,47,30.03,10.0,Variable,3.5,-,N/A,,Mostly Cloudy,0,2013-05-12 17:53:00
2:53 PM,84.0,57.0,40,30.02,10.0,Variable,4.6,-,N/A,,Scattered Clouds,0,2013-05-12 18:53:00
3:53 PM,86.0,55.9,36,30.00,10.0,Variable,6.9,-,N/A,,Partly Cloudy,0,2013-05-12 19:53:00
4:53 PM,84.9,51.1,31,30.01,10.0,Variable,5.8,-,N/A,,Clear,0,2013-05-12 20:53:00
5:53 PM,82.9,46.0,27,30.01,10.0,Variable,6.9,-,N/A,,Clear,0,2013-05-12 21:53:00
6:53 PM,80.1,48.0,32,30.01,10.0,NW,5.8,-,N/A,,Clear,310,2013-05-12 22:53:00
7:53 PM,77.0,51.1,40,30.02,10.0,Variable,3.5,-,N/A,,Clear,0,2013-05-12 23:53:00
8:53 PM,72.0,53.1,51,30.04,10.0,Calm,Calm,-,N/A,,Clear,0,2013-05-13 00:53:00
9:53 PM,69.1,53.1,57,30.06,10.0,WNW,3.5,-,N/A,,Clear,300,2013-05-13 01:53:00
10:53 PM,68.0,54.0,61,30.08,10.0,Calm,Calm,-,N/A,,Clear,0,2013-05-13 02:53:00
11:53 PM,64.9,54.0,68,30.08,10.0,Calm,Calm,-,N/A,,Clear,0,2013-05-13 03:53:00